DLH177 EDDF-EDDH

Flight info

Callsign DLH177
Flight time N/A
Altitude 33000
Route MARUN6E/07C MARUN Y150 TOLGI DCT SAS/N0453F320 P605 NOLGO NOLGO3D
Aircraft A320/M-SDE3FGHIRWY/LB1

Departure

Time 2026-04-15 11:08
Airport Frankfurt Main Airport (EDDF)

Arrival

Time N/A
Airport Hamburg Helmut Schmidt Airport (EDDH)
Time Latitude Longitude Altitude Speed Heading
2026-04-15 10:19 50.04453 8.56431 356 ft 0 kts 154°
2026-04-15 10:55 50.04453 8.56430 356 ft 2 kts 154°
2026-04-15 10:55 50.04476 8.56414 360 ft 4 kts 155°
2026-04-15 10:56 50.04501 8.56399 358 ft 4 kts 172°
2026-04-15 10:56 50.04520 8.56402 356 ft 3 kts 245°
2026-04-15 10:56 50.04518 8.56390 362 ft 4 kts 250°
2026-04-15 10:56 50.04514 8.56374 358 ft 0 kts 250°
2026-04-15 11:00 50.04493 8.56282 357 ft 18 kts 250°
2026-04-15 11:00 50.04451 8.56109 363 ft 13 kts 249°
2026-04-15 11:01 50.04406 8.56027 356 ft 9 kts 189°
2026-04-15 11:01 50.04346 8.56052 359 ft 9 kts 159°
2026-04-15 11:01 50.04293 8.56105 355 ft 9 kts 116°
2026-04-15 11:01 50.04286 8.56198 355 ft 8 kts 119°
2026-04-15 11:02 50.04236 8.56243 360 ft 9 kts 159°
2026-04-15 11:02 50.04170 8.56282 357 ft 11 kts 159°
2026-04-15 11:02 50.04113 8.56218 355 ft 11 kts 248°
2026-04-15 11:02 50.04086 8.56106 357 ft 11 kts 250°
2026-04-15 11:03 50.04046 8.55936 353 ft 23 kts 249°
2026-04-15 11:03 50.03985 8.55691 349 ft 26 kts 249°
2026-04-15 11:03 50.03920 8.55419 351 ft 28 kts 249°
2026-04-15 11:03 50.03851 8.55128 353 ft 30 kts 250°
2026-04-15 11:04 50.03785 8.54848 350 ft 26 kts 250°
2026-04-15 11:04 50.03719 8.54573 352 ft 28 kts 249°
2026-04-15 11:04 50.03667 8.54350 348 ft 11 kts 250°
2026-04-15 11:04 50.03609 8.54311 347 ft 10 kts 167°
2026-04-15 11:05 50.03578 8.54330 352 ft 0 kts 159°
2026-04-15 11:06 50.03551 8.54345 344 ft 15 kts 161°
2026-04-15 11:07 50.03499 8.54457 346 ft 3 kts 72°
2026-04-15 11:07 50.03504 8.54477 349 ft 17 kts 71°
2026-04-15 11:07 50.03649 8.55088 346 ft 99 kts 70°
2026-04-15 11:07 50.03963 8.56397 365 ft 156 kts 69°
2026-04-15 11:08 50.04338 8.57969 1029 ft 152 kts 71°
2026-04-15 11:08 50.04703 8.59531 1781 ft 159 kts 70°
2026-04-15 11:08 50.05110 8.61252 2277 ft 181 kts 70°
2026-04-15 11:08 50.05845 8.62956 2746 ft 205 kts 38°
2026-04-15 11:09 50.07233 8.63646 3409 ft 219 kts
2026-04-15 11:09 50.08751 8.63560 4307 ft 222 kts 359°
2026-04-15 11:09 50.10307 8.63439 5175 ft 226 kts 358°
2026-04-15 11:09 50.11889 8.63316 5718 ft 246 kts 358°
2026-04-15 11:10 50.13703 8.63177 6240 ft 269 kts 357°
2026-04-15 11:10 50.15609 8.63033 7032 ft 278 kts 356°
2026-04-15 11:10 50.17565 8.62894 7916 ft 283 kts 357°
2026-04-15 11:10 50.19545 8.62761 8877 ft 287 kts 357°
2026-04-15 11:11 50.21556 8.62631 9846 ft 291 kts 356°
2026-04-15 11:11 50.23609 8.62499 10583 ft 303 kts 356°
2026-04-15 11:11 50.25800 8.62353 10913 ft 327 kts 356°
2026-04-15 11:11 50.28151 8.62190 11266 ft 347 kts 356°
2026-04-15 11:12 50.30586 8.62023 11961 ft 354 kts 356°
2026-04-15 11:12 50.32231 8.61913 12502 ft 357 kts 356°
2026-04-15 11:12 50.34730 8.61792 13335 ft 361 kts 357°
2026-04-15 11:12 50.37258 8.61761 14138 ft 365 kts 358°
2026-04-15 11:13 50.39811 8.61781 14850 ft 368 kts 359°
2026-04-15 11:13 50.42390 8.61817 15551 ft 372 kts 359°
2026-04-15 11:13 50.44994 8.61920 16253 ft 376 kts
2026-04-15 11:13 50.47612 8.62318 16965 ft 380 kts
2026-04-15 11:14 50.50257 8.62706 17674 ft 383 kts
2026-04-15 11:14 50.52922 8.63083 18371 ft 387 kts
2026-04-15 11:14 50.55613 8.63458 18987 ft 390 kts
2026-04-15 11:14 50.58335 8.63835 19583 ft 394 kts
2026-04-15 11:15 50.61074 8.64213 20188 ft 397 kts
2026-04-15 11:15 50.63841 8.64599 20786 ft 400 kts
2026-04-15 11:15 50.66627 8.64990 21375 ft 404 kts
2026-04-15 11:15 50.69436 8.65391 21947 ft 407 kts
2026-04-15 11:16 50.72265 8.65796 22507 ft 410 kts
2026-04-15 11:16 50.75116 8.66204 23051 ft 413 kts
2026-04-15 11:16 50.77967 8.66944 23577 ft 418 kts 14°
2026-04-15 11:16 50.80707 8.68548 24051 ft 423 kts 25°
2026-04-15 11:17 50.83230 8.70982 24481 ft 427 kts 36°
2026-04-15 11:17 50.85425 8.74170 24923 ft 431 kts 47°
2026-04-15 11:17 50.87290 8.77919 25360 ft 434 kts 51°
2026-04-15 11:17 50.89096 8.81690 25773 ft 436 kts 51°
2026-04-15 11:18 50.90930 8.85530 26180 ft 438 kts 50°
2026-04-15 11:18 50.92773 8.89389 26581 ft 440 kts 50°
2026-04-15 11:18 50.94645 8.93315 26988 ft 442 kts 50°
2026-04-15 11:18 50.96502 8.97214 27375 ft 444 kts 50°
2026-04-15 11:19 50.98342 9.01082 27759 ft 446 kts 50°
2026-04-15 11:19 51.00214 9.05024 28129 ft 448 kts 50°
2026-04-15 11:19 51.02096 9.08991 28485 ft 450 kts 50°
2026-04-15 11:19 51.03983 9.12978 28826 ft 452 kts 50°
2026-04-15 11:20 51.05876 9.16987 29167 ft 454 kts 50°
2026-04-15 11:20 51.07825 9.20942 29475 ft 454 kts 44°
2026-04-15 11:20 51.10094 9.24401 29780 ft 451 kts 35°
2026-04-15 11:20 51.12667 9.27212 30077 ft 448 kts 26°
2026-04-15 11:21 51.15466 9.29315 30346 ft 445 kts 17°
2026-04-15 11:21 51.18433 9.30685 30587 ft 442 kts
2026-04-15 11:21 51.21428 9.31706 30916 ft 440 kts
2026-04-15 11:21 51.24418 9.32738 31226 ft 439 kts
2026-04-15 11:22 51.27395 9.33772 31556 ft 437 kts
2026-04-15 11:22 51.30363 9.34810 31879 ft 436 kts
2026-04-15 11:22 51.33320 9.35848 32201 ft 434 kts
2026-04-15 11:22 51.36265 9.36879 32559 ft 432 kts
2026-04-15 11:23 51.39196 9.37902 32893 ft 430 kts
2026-04-15 11:23 51.42118 9.38920 33184 ft 429 kts
2026-04-15 11:23 51.47945 9.40955 33247 ft 428 kts
2026-04-15 11:24 51.53759 9.42992 33248 ft 428 kts
2026-04-15 11:24 51.59573 9.45033 33250 ft 428 kts
2026-04-15 11:25 51.65394 9.47081 33254 ft 428 kts
2026-04-15 11:25 51.71210 9.49139 33251 ft 428 kts
2026-04-15 11:26 51.77031 9.51201 33253 ft 429 kts
2026-04-15 11:26 51.82837 9.53494 33252 ft 433 kts 15°
2026-04-15 11:27 51.88309 9.57729 33253 ft 438 kts 22°
2026-04-15 11:27 51.93700 9.62203 33254 ft 438 kts 22°
2026-04-15 11:28 51.99122 9.66696 33255 ft 438 kts 22°
2026-04-15 11:28 52.04542 9.71196 33255 ft 438 kts 22°
2026-04-15 11:29 52.09972 9.75718 33256 ft 438 kts 22°
2026-04-15 11:29 52.15392 9.80261 33247 ft 438 kts 22°
2026-04-15 11:30 52.20821 9.84830 33247 ft 439 kts 22°
2026-04-15 11:30 52.26335 9.88946 33255 ft 432 kts 12°
2026-04-15 11:31 52.32121 9.91509 33254 ft 431 kts 10°
2026-04-15 11:31 52.37916 9.94055 33245 ft 431 kts 10°